Flag for U.S.A. Weather past 2 weeks in Clovis, New Mexico, U.S.A.

Now
46 °F

Sunny.


Feels Like: 44 °F
Forecast: 30 / 48 °F
Wind: 5 mph from Northwest

Location: Cannon Air Force Base / Clovis

Current Time: Dec 19, 2014 at 2:22:08 PM

Latest Report: Dec 19, 2014 at 1:58 PM


Visibility: 9 mi

Pressure: 30.07 "Hg

Humidity: 55%

Dew point: 31 °F

Location of ClovisLocation

Historic Weather in Clovis — Graph

°F

Clovis temperature yesterday

Maximum temperature yesterday: 54 °F (at 1:58 PM)
Minimum temperature yesterday: 32 °F (at 6:58 AM)
Average temperature yesterday: 42 °F

Past Weeks' High & Low Weather Summary

 TemperatureHumidityPressure
High69 °F (Dec 12, 1:58 PM)100% (Dec 11, 6:49 AM)30.49 "Hg (Dec 11, 6:49 AM)
Low25 °F (Dec 16, 6:58 AM)20% (Dec 15, 2:58 PM)29.58 "Hg (Dec 14, 12:58 PM)
Average46 °F65%30.09 "Hg
* Reported Dec 4 12:58 PM — Dec 19 12:58 PM, Clovis, Weather by CustomWeather, © 2014

Note: Actual official high and low records may vary slightly from our data, if they occured in-between our weather recording intervals... More about our weather records

Advertising

Clovis weather history for previous 24 hours

 ConditionsComfort  
Time TempWeatherWind HumidityBarometerVisibility
12:58 PM
Dec 19
44 °FSunny.5 mph61%30.08 "Hg10 mi
11:58 AM42 °FSunny.1 mph66%30.11 "Hg10 mi
10:58 AM39 °FScattered clouds.5 mph71%30.16 "Hg10 mi
9:58 AM38 °FOvercast.1 mph78%30.17 "Hg10 mi
8:58 AM37 °FOvercast.5 mph82%30.15 "Hg10 mi
7:58 AM35 °FLow clouds.1 mph88%30.12 "Hg10 mi
6:58 AM36 °FFog.6 mph93%30.11 "Hg4 mi
5:58 AM36 °FFog.8 mph97%30.08 "Hg3 mi
4:59 AM36 °FFog.10 mph97%30.07 "Hg1 mi
3:58 AM36 °FFog.6 mph97%30.05 "Hg2 mi
2:58 AM36 °FFog.7 mph94%30.06 "Hg4 mi
1:58 AM36 °FFog.7 mph91%30.07 "Hg5 mi
12:58 AM36 °FOvercast.7 mph91%30.06 "Hg10 mi
11:58 PM
Dec 18
35 °FPassing clouds.7 mph92%30.07 "Hg10 mi
10:58 PM35 °FFog.5 mph90%30.10 "Hg6 mi
9:58 PM37 °FLight rain. Mostly cloudy.6 mph85%30.10 "Hg7 mi
8:58 PM38 °FPassing clouds.9 mph80%30.10 "Hg10 mi
7:58 PM40 °FPassing clouds.10 mph75%30.08 "Hg10 mi
6:58 PM42 °FPassing clouds.10 mph68%30.08 "Hg10 mi
5:58 PM46 °FClear.3 mph37%30.05 "Hg10 mi
4:58 PM50 °FPassing clouds.6 mph31%30.03 "Hg10 mi
3:58 PM53 °FSunny.12 mph28%30.01 "Hg10 mi
2:58 PM54 °FSunny.15 mph25%29.98 "Hg10 mi
Weather by CustomWeather, © 2014

See weather overviewHow to use our weather pages